Tracking 19192 objects as of 18-Jun-2018
HD Live streaming from Space Station
objects crossing your sky now

FENGYUN 1C DEB

Track FENGYUN 1C DEB now!
10-day predictions


NORAD ID: 30883
Int'l Code: 1999-025AXV
Perigee: 773.6 km
Apogee: 941.0 km
Inclination: 98.4 °
Period: 101.9 minutes
Semi major axis: 7228 km
RCS: 0.0149 m2 (small)
Launch date: May 10, 1999
Source: People's Republic of China (PRC)
Launch site: Taiyaun Space Center, China (TSC)

Note: This is SATELLITE DEBRIS
aabbcc
Your satellite tracking list
Your tracking list is empty




NASA's NSSDC Master Catalog

Two Line Element Set (TLE):
1 30883U 99025AXV 18169.23041758 +.00000064 +00000-0 +52045-4 0  9992
2 30883 098.3806 319.6594 0115795 144.0927 339.6062 14.12704967583680
Source of the keplerian elements: AFSPC